K5BV Weather Reports


Display with metric or nautical units.
time (UTC)temp
F
wind
direction
speed
MPH
gust
MPH
rain 1hr
in
rain 24hr
in
rain mn
in
humidity
%
barometer
mb
20210917182258 90 116 4.0 8.0 0.00 0.00 0.00 62 1015.7
20210917181258 90 129 5.0 8.0 0.00 0.00 0.00 62 1015.8
20210917180259 90 132 5.0 8.0 0.00 0.00 0.00 63 1015.9
20210917175259 90 118 4.0 8.0 0.00 0.00 0.00 64 1016.0
20210917174258 90 126 5.0 7.0 0.00 0.00 0.00 64 1016.0
20210917173259 89 125 4.0 7.0 0.00 0.00 0.00 66 1016.1
20210917172258 88 120 4.0 7.0 0.00 0.00 0.00 66 1016.1
20210917171259 88 108 3.0 6.0 0.00 0.00 0.00 66 1016.1
20210917170259 88 128 3.0 7.0 0.00 0.00 0.00 65 1016.2
20210917165258 88 119 3.0 7.0 0.00 0.00 0.00 67 1016.1
20210917164258 87 119 3.0 7.0 0.00 0.00 0.00 68 1016.2
20210917163258 86 134 4.0 7.0 0.00 0.00 0.00 68 1016.3
20210917162258 86 79 3.0 6.0 0.00 0.00 0.00 71 1016.4
20210917161258 86 110 3.0 7.0 0.00 0.00 0.00 70 1016.4
20210917160259 86 146 3.0 5.0 0.00 0.00 0.00 69 1016.4
20210917155258 86 102 2.0 3.0 0.00 0.00 0.00 73 1016.3
20210917154258 87 134 1.0 3.0 0.00 0.00 0.00 74 1016.3
20210917153258 86 130 2.0 5.0 0.00 0.00 0.00 73 1016.2
20210917152258 86 33 2.0 5.0 0.00 0.00 0.00 75 1016.2
20210917151258 86 96 3.0 5.0 0.00 0.00 0.00 75 1016.0
20210917150258 84 97 1.0 3.0 0.00 0.00 0.00 76 1015.9
20210917145258 85 73 0.0 3.0 0.00 0.00 0.00 79 1015.7
20210917144258 84 14 0.0 0.0 0.00 0.00 0.00 81 1015.7
20210917143258 84 14 0.0 2.0 0.00 0.00 0.00 83 1015.6
20210917142258 82 38 1.0 3.0 0.00 0.00 0.00 84 1015.6
20210917141259 82 7 1.0 3.0 0.00 0.00 0.00 85 1015.6
20210917140258 81 131 0.0 0.0 0.00 0.00 0.00 86 1015.5
20210917135258 80 131 0.0 0.0 0.00 0.00 0.00 86 1015.4
20210917134258 81 131 0.0 0.0 0.00 0.00 0.00 87 1015.2
20210917133258 80 131 0.0 0.0 0.00 0.00 0.00 87 1015.2
20210917132258 80 131 0.0 0.0 0.00 0.00 0.00 87 1015.0
20210917131258 79 131 0.0 0.0 0.00 0.00 0.00 87 1015.0
20210917130258 79 131 0.0 0.0 0.00 0.00 0.00 87 1014.9
20210917125258 79 131 0.0 0.0 0.00 0.00 0.00 87 1014.8
20210917124258 78 131 0.0 0.0 0.00 0.00 0.00 87 1014.7
20210917123258 79 131 0.0 0.0 0.00 0.00 0.00 87 1014.7
20210917122258 79 131 0.0 0.0 0.00 0.00 0.00 87 1014.6
20210917121258 78 131 0.0 0.0 0.00 0.00 0.00 86 1014.5
20210917120258 79 131 0.0 0.0 0.00 0.00 0.00 86 1014.4
20210917115258 79 131 0.0 0.0 0.00 0.00 0.00 86 1014.3
20210917114259 78 131 0.0 0.0 0.00 0.00 0.00 86 1014.1
20210917113258 78 131 0.0 0.0 0.00 0.00 0.00 86 1013.9
20210917112259 79 131 0.0 0.0 0.00 0.00 0.00 86 1013.8
20210917111259 79 131 0.0 0.0 0.00 0.00 0.00 86 1013.7
20210917110258 80 131 0.0 0.0 0.00 0.00 0.00 85 1013.6
20210917105258 80 131 0.0 0.0 0.00 0.00 0.00 85 1013.5
20210917104258 80 131 0.0 0.0 0.00 0.00 0.00 84 1013.5
20210917103258 80 131 0.0 0.0 0.00 0.00 0.00 83 1013.4
20210917102258 80 131 0.0 0.0 0.00 0.00 0.00 82 1013.4
20210917101258 81 131 0.0 0.0 0.00 0.00 0.00 81 1013.3
20210917100258 80 131 0.0 6.0 0.00 0.00 0.00 81 1013.3
20210917095258 80 157 3.0 6.0 0.00 0.00 0.00 81 1013.1
20210917094258 81 150 3.0 6.0 0.00 0.00 0.00 81 1013.0
20210917093258 81 167 3.0 6.0 0.00 0.00 0.00 80 1013.0
20210917092258 81 145 3.0 6.0 0.00 0.00 0.00 80 1013.0
20210917091258 81 154 3.0 6.0 0.00 0.00 0.00 79 1012.9
20210917090258 81 161 4.0 7.0 0.00 0.00 0.00 79 1012.9
20210917085258 81 155 3.0 6.0 0.00 0.00 0.00 79 1012.8
20210917084258 81 147 5.0 7.0 0.00 0.00 0.00 78 1012.7
20210917083257 80 150 2.0 5.0 0.00 0.00 0.00 78 1012.8
20210917082258 81 143 2.0 5.0 0.00 0.00 0.00 79 1012.8
20210917081258 81 145 2.0 5.0 0.00 0.00 0.00 78 1012.8
20210917080258 81 137 3.0 6.0 0.00 0.00 0.00 79 1012.8
20210917075259 82 151 3.0 7.0 0.00 0.00 0.00 80 1012.8
20210917074258 81 134 4.0 7.0 0.00 0.00 0.00 80 1012.8
20210917073258 81 133 3.0 8.0 0.00 0.00 0.00 80 1012.8
20210917072258 81 145 5.0 9.0 0.00 0.00 0.00 80 1012.9
20210917071259 81 134 5.0 8.0 0.00 0.00 0.00 80 1012.9
20210917070258 81 125 5.0 8.0 0.00 0.00 0.00 80 1013.0
20210917065257 81 128 5.0 8.0 0.00 0.00 0.00 79 1013.0
20210917064259 81 128 5.0 9.0 0.00 0.00 0.00 79 1013.0
20210917063258 81 121 5.0 9.0 0.00 0.00 0.00 79 1013.1
20210917062259 81 106 3.0 9.0 0.00 0.00 0.00 79 1012.9
20210917061258 81 119 5.0 8.0 0.00 0.00 0.00 79 1013.0
20210917060258 82 133 3.0 8.0 0.00 0.00 0.00 79 1013.1
20210917055258 82 129 5.0 8.0 0.00 0.00 0.00 78 1013.2
20210917054258 81 129 3.0 8.0 0.00 0.00 0.00 79 1013.2
20210917053258 82 135 2.0 7.0 0.00 0.00 0.00 79 1013.0
20210917052258 82 138 4.0 7.0 0.00 0.00 0.00 79 1013.0
20210917051258 81 132 5.0 8.0 0.00 0.00 0.00 79 1013.0
20210917050258 82 124 5.0 8.0 0.00 0.00 0.00 79 1013.0
20210917045259 81 134 4.0 8.0 0.00 0.00 0.00 80 1013.1
20210917044311 81 136 5.0 7.0 0.00 0.00 0.00 80 1013.1
20210917043300 81 127 5.0 8.0 0.00 0.00 0.00 80 1013.1
20210917042259 81 123 4.0 8.0 0.00 0.00 0.00 80 1013.1
20210917041259 81 105 5.0 8.0 0.00 0.00 0.00 80 1013.0
20210917040300 81 107 5.0 9.0 0.00 0.00 0.00 80 1012.9
20210917035259 81 127 4.0 9.0 0.00 0.00 0.00 80 1013.0
20210917034259 81 122 6.0 9.0 0.00 0.00 0.00 80 1013.0
20210917033301 81 129 5.0 9.0 0.00 0.00 0.00 80 1013.0
20210917032300 81 117 7.0 10.0 0.00 0.00 0.00 80 1013.0
20210917031300 81 126 6.0 10.0 0.00 0.00 0.00 80 1013.1
20210917030300 81 129 5.0 10.0 0.00 0.00 0.00 80 1013.0
20210917025300 81 134 7.0 9.0 0.00 0.00 0.00 80 1012.9
20210917024300 81 121 7.0 12.0 0.00 0.00 0.00 80 1012.6
20210917023300 82 122 7.0 10.0 0.00 0.00 0.00 79 1012.6
20210917022259 82 122 6.0 9.0 0.00 0.00 0.00 79 1012.6
20210917021300 81 124 6.0 10.0 0.00 0.00 0.00 78 1012.4
20210917020300 82 108 5.0 9.0 0.00 0.00 0.00 78 1012.2
20210917015301 82 121 5.0 9.0 0.00 0.00 0.00 78 1012.1
20210917014301 83 107 5.0 9.0 0.00 0.00 0.00 77 1012.0
20210917013259 82 125 5.0 9.0 0.00 0.00 0.00 77 1011.8
20210917012301 83 97 4.0 9.0 0.00 0.00 0.00 75 1011.7
20210917011259 83 115 7.0 9.0 0.00 0.00 0.00 76 1011.5
20210917010259 84 92 5.0 9.0 0.00 0.00 0.00 75 1011.5
20210917005300 83 112 6.0 10.0 0.00 0.00 0.00 75 1011.4
20210917004301 83 102 6.0 9.0 0.00 0.00 0.00 74 1011.3
20210917003259 83 105 6.0 9.0 0.00 0.00 0.00 73 1011.2
20210917002300 84 121 6.0 9.0 0.00 0.00 0.00 72 1011.1
20210917001301 85 102 5.0 10.0 0.00 0.00 0.00 70 1011.0
20210917000259 85 104 5.0 10.0 0.00 0.00 0.00 68 1010.8
20210916235302 86 97 6.0 12.0 0.00 0.00 0.00 67 1010.8
20210916211259 89 96 8.0 13.0 0.00 0.00 0.00 60 1010.4
20210916210259 89 293 3.0 7.0 0.00 0.00 0.00 55 1010.3
20210916205259 90 65 2.0 7.0 0.00 0.00 0.00 56 1010.4
20210916204300 90 94 3.0 8.0 0.00 0.00 0.00 54 1010.4
20210916203259 91 12 3.0 9.0 0.00 0.00 0.00 55 1010.6
20210916202259 91 5 5.0 10.0 0.00 0.00 0.00 51 1010.8
20210916201300 90 10 3.0 9.0 0.00 0.00 0.00 56 1010.9
20210916200259 91 353 4.0 9.0 0.00 0.00 0.00 53 1011.0
20210916195259 90 23 3.0 14.0 0.00 0.00 0.00 53 1011.1
20210916194259 91 6 5.0 10.0 0.00 0.00 0.00 54 1011.2
20210916193259 90 44 3.0 8.0 0.00 0.00 0.00 56 1011.3
20210916192300 90 3 2.0 9.0 0.00 0.00 0.00 56 1011.4
20210916191300 90 88 3.0 9.0 0.00 0.00 0.00 58 1011.6
20210916190259 90 32 3.0 9.0 0.00 0.00 0.00 59 1011.7
20210916185259 90 110 5.0 12.0 0.00 0.00 0.00 58 1011.8
20210916184300 90 86 4.0 12.0 0.00 0.00 0.00 58 1012.0
20210916183259 91 70 3.0 9.0 0.00 0.00 0.00 59 1012.2